EDT,Max TemperatureF,Mean TemperatureF,Min TemperatureF,Max Dew PointF,MeanDew PointF,Min DewpointF,Max Humidity, Mean Humidity, Min Humidity, Max Sea Level PressureIn, Mean Sea Level PressureIn, Min Sea Level PressureIn, Max VisibilityMiles, Mean VisibilityMiles, Min VisibilityMiles, Max Wind SpeedMPH, Mean Wind SpeedMPH, Max Gust SpeedMPH,PrecipitationIn, CloudCover, Events, WindDirDegrees
2013-3-1,51,40,30,37,29,25,86,65,40,29.95,29.91,29.86,,,,13,6,24,0.00,4,,311
2013-3-2,46,42,37,37,31,27,87,68,46,29.93,29.90,29.86,,,,13,4,16,0.00,7,,15
2013-3-3,48,39,30,28,21,18,75,55,34,30.01,29.95,29.89,,,,16,9,21,0.00,2,,323
2013-3-4,53,40,26,28,19,14,75,51,21,30.17,30.10,30.02,,,,15,6,20,0.00,0,,298
2013-3-5,66,50,35,48,39,27,82,63,46,30.10,29.92,29.63,,,,18,8,24,0.02,4,,198
2013-3-6,53,46,39,46,29,21,77,55,37,30.09,29.83,29.62,,,,29,20,38,0.02,3,,289
2013-3-7,55,44,33,32,27,25,70,57,38,30.25,30.18,30.09,,,,16,10,20,0.00,0,,332
2013-3-8,53,42,30,28,25,21,75,55,33,30.32,30.25,30.19,,,,18,9,25,0.00,0,,330
2013-3-9,64,48,33,39,30,23,81,55,26,30.36,30.30,30.24,,,,13,6,16,0.00,0,,2
2013-3-10,69,51,33,39,33,21,93,54,28,30.32,30.26,30.21,,,,10,3,,0.00,0,,122
2013-3-11,69,53,37,52,43,27,93,66,46,30.25,30.09,29.92,10,10,10,20,5,26,0.00,3,,143
2013-3-12,75,65,53,61,52,36,83,64,36,29.96,29.85,29.78,10,10,4,16,11,23,0.26,4,,218
2013-3-13,62,50,37,36,30,18,81,53,25,30.15,30.05,29.97,10,10,10,20,8,29,0.00,1,,300
2013-3-14,51,40,30,28,22,18,70,53,28,30.30,30.22,30.16,10,10,5,16,8,22,0.00,0,,321
2013-3-15,66,47,28,36,28,21,86,50,26,30.24,30.12,29.96,10,10,9,16,5,22,0.00,0,,212
2013-3-16,80,68,55,45,40,36,51,37,21,29.96,29.87,29.78,10,10,10,26,13,40,0.00,0,,226
2013-3-17,80,68,55,50,44,39,63,46,30,30.08,29.96,29.90,10,10,10,17,10,22,0.00,1,,225
2013-3-18,55,52,48,45,40,37,71,67,62,30.14,30.11,30.07,10,9,5,14,10,,0.00,8,,45
2013-3-19,71,58,46,46,37,23,87,57,17,30.04,29.93,29.86,10,10,2,16,7,24,0.00,3,,303
2013-3-20,55,46,37,30,21,16,70,36,21,30.15,30.01,29.81,10,10,8,13,5,,0.00,0,,20
2013-3-21,53,44,35,27,16,9,61,35,16,29.98,29.85,29.77,10,10,10,20,10,29,0.00,0,,307
2013-3-22,53,40,26,30,18,12,69,41,22,30.12,30.06,29.99,10,10,10,12,5,17,0.00,2,,252
2013-3-23,55,45,35,43,36,27,81,69,54,30.08,30.01,29.92,10,10,8,8,2,,0.03,6,,14
2013-3-24,48,45,41,43,39,37,87,80,71,29.93,29.69,29.56,10,7,2,18,8,25,0.77,7,,27
2013-3-25,51,46,41,39,29,21,93,54,33,29.92,29.70,29.59,10,10,5,25,11,34,0.00,5,,255
2013-3-26,51,42,33,28,23,21,61,48,35,30.17,30.02,29.92,10,10,10,16,11,23,0.00,3,,285
2013-3-27,57,44,30,25,23,21,75,46,25,30.26,30.21,30.17,10,10,10,17,8,25,0.00,0,,318
2013-3-28,59,44,30,28,22,19,70,45,23,30.32,30.26,30.21,10,10,10,16,7,23,0.00,0,,326
2013-3-29,64,46,28,37,27,21,86,49,19,30.37,30.29,30.22,10,10,10,12,3,18,0.00,2,,263
2013-3-30,68,58,48,46,43,34,87,62,40,30.25,30.18,30.10,10,10,10,10,4,,0.01,3,,90
2013-3-31,75,63,51,55,50,43,88,66,41,30.11,29.96,29.86,10,10,7,22,9,29,0.03,5,,198